| time (UTC) | temp C | wind direction | speed KPH | gust KPH | rain 1hr cm | rain 24hr cm | rain mn cm | humidity % | barometer mb |
| 20260505041303 | 11 | 340 | 1.6 | 1.6 | 0.00 | 0.00 | 0.00 | 70 | 1008.4 |
| 20260505040303 | 11 | 340 | 0.0 | 3.2 | 0.00 | 0.00 | 0.00 | 70 | 1008.4 |
| 20260505035803 | 11 | 340 | 0.0 | 3.2 | 0.00 | 0.00 | 0.00 | 69 | 1008.4 |
| 20260505034803 | 12 | 340 | 1.6 | 3.2 | 0.00 | 0.00 | 0.00 | 67 | 1008.4 |
| 20260505034303 | 12 | 346 | 1.6 | 3.2 | 0.00 | 0.00 | 0.00 | 67 | 1008.4 |
| 20260505033803 | 12 | 329 | 0.0 | 3.2 | 0.00 | 0.00 | 0.00 | 66 | 1008.4 |
| 20260505033303 | 13 | 342 | 0.0 | 3.2 | 0.00 | 0.00 | 0.00 | 64 | 1008.3 |
| 20260505032803 | 13 | 335 | 1.6 | 3.2 | 0.00 | 0.00 | 0.00 | 63 | 1008.3 |
| 20260505032304 | 13 | 337 | 1.6 | 3.2 | 0.00 | 0.00 | 0.00 | 62 | 1008.2 |
| 20260505031803 | 13 | 334 | 1.6 | 3.2 | 0.00 | 0.00 | 0.00 | 61 | 1008.4 |
| 20260505031303 | 14 | 355 | 0.0 | 3.2 | 0.00 | 0.00 | 0.00 | 60 | 1008.5 |
| 20260505030303 | 14 | 305 | 0.0 | 3.2 | 0.00 | 0.00 | 0.00 | 59 | 1008.5 |
| 20260505025803 | 15 | 222 | 0.0 | 3.2 | 0.00 | 0.00 | 0.00 | 58 | 1008.6 |
| 20260505024803 | 15 | 286 | 0.0 | 3.2 | 0.00 | 0.00 | 0.00 | 58 | 1008.6 |
| 20260505023803 | 15 | 158 | 1.6 | 3.2 | 0.00 | 0.00 | 0.00 | 55 | 1008.7 |
| 20260505023304 | 15 | 109 | 1.6 | 4.8 | 0.00 | 0.00 | 0.00 | 54 | 1008.8 |
| 20260505022803 | 15 | 189 | 0.0 | 4.8 | 0.00 | 0.00 | 0.00 | 54 | 1008.8 |
| 20260505022304 | 15 | 226 | 0.0 | 3.2 | 0.00 | 0.00 | 0.00 | 54 | 1008.8 |
| 20260505021803 | 15 | 304 | 1.6 | 3.2 | 0.00 | 0.00 | 0.00 | 54 | 1008.8 |
| 20260505021304 | 15 | 215 | 0.0 | 4.8 | 0.00 | 0.00 | 0.00 | 54 | 1008.8 |
| 20260505020804 | 15 | 223 | 0.0 | 4.8 | 0.00 | 0.00 | 0.00 | 53 | 1008.8 |
| 20260505020303 | 15 | 172 | 1.6 | 4.8 | 0.00 | 0.00 | 0.00 | 53 | 1008.8 |
| 20260505015803 | 16 | 194 | 0.0 | 8.0 | 0.00 | 0.00 | 0.00 | 53 | 1008.8 |
| 20260505015303 | 16 | 197 | 1.6 | 9.7 | 0.00 | 0.00 | 0.00 | 53 | 1008.7 |
| 20260505014803 | 16 | 120 | 3.2 | 9.7 | 0.00 | 0.00 | 0.00 | 52 | 1008.7 |
| 20260505014304 | 16 | 138 | 1.6 | 4.8 | 0.00 | 0.00 | 0.00 | 51 | 1008.6 |
| 20260505013803 | 16 | 49 | 1.6 | 8.0 | 0.00 | 0.00 | 0.00 | 52 | 1008.6 |
| 20260505012803 | 16 | 188 | 1.6 | 16.1 | 0.00 | 0.00 | 0.00 | 50 | 1008.6 |
| 20260505012304 | 16 | 161 | 3.2 | 16.1 | 0.00 | 0.00 | 0.00 | 50 | 1008.6 |
| 20260505011803 | 16 | 164 | 4.8 | 16.1 | 0.00 | 0.00 | 0.00 | 50 | 1008.6 |
| 20260505011303 | 16 | 159 | 1.6 | 9.7 | 0.00 | 0.00 | 0.00 | 50 | 1008.5 |
| 20260505010303 | 16 | 151 | 1.6 | 8.0 | 0.00 | 0.00 | 0.00 | 50 | 1008.4 |
| 20260505005803 | 16 | 194 | 1.6 | 8.0 | 0.00 | 0.00 | 0.00 | 49 | 1008.3 |
| 20260505005304 | 16 | 172 | 3.2 | 8.0 | 0.00 | 0.00 | 0.00 | 50 | 1008.3 |
| 20260505004803 | 16 | 196 | 1.6 | 8.0 | 0.00 | 0.00 | 0.00 | 49 | 1008.2 |
| 20260505004303 | 16 | 121 | 1.6 | 4.8 | 0.00 | 0.00 | 0.00 | 49 | 1008.2 |
| 20260505003803 | 17 | 195 | 1.6 | 4.8 | 0.00 | 0.00 | 0.00 | 50 | 1008.1 |
| 20260505003303 | 17 | 141 | 0.0 | 4.8 | 0.00 | 0.00 | 0.00 | 49 | 1008.0 |
| 20260505002803 | 17 | 144 | 0.0 | 8.0 | 0.00 | 0.00 | 0.00 | 48 | 1008.0 |
| 20260505002304 | 17 | 161 | 1.6 | 8.0 | 0.00 | 0.00 | 0.00 | 47 | 1007.9 |
| 20260505001303 | 17 | 159 | 3.2 | 4.8 | 0.00 | 0.00 | 0.00 | 46 | 1007.7 |
| 20260505000803 | 17 | 98 | 0.0 | 4.8 | 0.00 | 0.00 | 0.00 | 46 | 1007.7 |
| 20260505000304 | 18 | 197 | 1.6 | 4.8 | 0.00 | 0.00 | 0.00 | 45 | 1007.7 |
| 20260504235804 | 18 | 157 | 1.6 | 16.1 | 0.00 | 0.00 | 0.00 | 45 | 1007.7 |
| 20260504235304 | 18 | 189 | 3.2 | 16.1 | 0.00 | 0.00 | 0.00 | 44 | 1007.7 |
| 20260504233303 | 19 | 189 | 6.4 | 16.1 | 0.00 | 0.00 | 0.00 | 41 | 1007.6 |
| 20260504232803 | 20 | 207 | 3.2 | 16.1 | 0.00 | 0.00 | 0.00 | 41 | 1007.5 |
| 20260504232304 | 20 | 185 | 3.2 | 9.7 | 0.00 | 0.00 | 0.00 | 42 | 1007.6 |
| 20260504231804 | 20 | 95 | 1.6 | 9.7 | 0.00 | 0.00 | 0.00 | 41 | 1007.5 |
| 20260504231303 | 20 | 206 | 3.2 | 11.3 | 0.00 | 0.00 | 0.00 | 42 | 1007.4 |
| 20260504225804 | 20 | 135 | 4.8 | 16.1 | 0.00 | 0.00 | 0.00 | 39 | 1007.3 |
| 20260504225304 | 20 | 144 | 4.8 | 16.1 | 0.00 | 0.00 | 0.00 | 41 | 1007.2 |
| 20260504224803 | 20 | 176 | 4.8 | 16.1 | 0.00 | 0.00 | 0.00 | 40 | 1007.1 |
| 20260504223803 | 20 | 159 | 8.0 | 19.3 | 0.00 | 0.00 | 0.00 | 39 | 1007.0 |
| 20260504223303 | 20 | 153 | 3.2 | 14.5 | 0.00 | 0.00 | 0.00 | 39 | 1007.0 |
| 20260504222804 | 20 | 164 | 4.8 | 19.3 | 0.00 | 0.00 | 0.00 | 38 | 1007.0 |
| 20260504221803 | 20 | 149 | 4.8 | 19.3 | 0.00 | 0.00 | 0.00 | 38 | 1007.1 |
| 20260504221304 | 21 | 140 | 8.0 | 19.3 | 0.00 | 0.00 | 0.00 | 38 | 1007.1 |
| 20260504220803 | 21 | 150 | 9.7 | 19.3 | 0.00 | 0.00 | 0.00 | 37 | 1007.3 |
| 20260504220303 | 21 | 161 | 8.0 | 19.3 | 0.00 | 0.00 | 0.00 | 36 | 1007.3 |
| 20260504215803 | 21 | 195 | 4.8 | 12.9 | 0.00 | 0.00 | 0.00 | 37 | 1007.3 |
| 20260504215304 | 21 | 121 | 6.4 | 11.3 | 0.00 | 0.00 | 0.00 | 37 | 1007.2 |
| 20260504214804 | 21 | 155 | 8.0 | 11.3 | 0.00 | 0.00 | 0.00 | 38 | 1007.2 |
| 20260504214304 | 21 | 165 | 3.2 | 16.1 | 0.00 | 0.00 | 0.00 | 38 | 1007.3 |
| 20260504213803 | 21 | 133 | 6.4 | 16.1 | 0.00 | 0.00 | 0.00 | 37 | 1007.4 |
| 20260504213303 | 21 | 148 | 4.8 | 16.1 | 0.00 | 0.00 | 0.00 | 37 | 1007.3 |
| 20260504212804 | 21 | 159 | 9.7 | 16.1 | 0.00 | 0.00 | 0.00 | 36 | 1007.3 |
| 20260504212304 | 21 | 211 | 6.4 | 25.7 | 0.00 | 0.00 | 0.00 | 35 | 1007.5 |
| 20260504211804 | 21 | 180 | 3.2 | 25.7 | 0.00 | 0.00 | 0.00 | 36 | 1007.5 |
| 20260504211304 | 21 | 202 | 1.6 | 14.5 | 0.00 | 0.00 | 0.00 | 37 | 1007.5 |
| 20260504210803 | 21 | 135 | 6.4 | 19.3 | 0.00 | 0.00 | 0.00 | 36 | 1007.4 |
| 20260504210303 | 21 | 212 | 4.8 | 19.3 | 0.00 | 0.00 | 0.00 | 37 | 1007.5 |
| 20260504205304 | 21 | 196 | 6.4 | 19.3 | 0.00 | 0.00 | 0.00 | 35 | 1007.6 |
| 20260504204803 | 21 | 202 | 4.8 | 19.3 | 0.00 | 0.00 | 0.00 | 36 | 1007.6 |
| 20260504204304 | 21 | 144 | 4.8 | 22.5 | 0.00 | 0.00 | 0.00 | 37 | 1007.6 |
| 20260504203803 | 21 | 118 | 8.0 | 22.5 | 0.00 | 0.00 | 0.00 | 35 | 1007.9 |
| 20260504203303 | 20 | 154 | 4.8 | 20.9 | 0.00 | 0.00 | 0.00 | 37 | 1008.0 |
| 20260504202803 | 21 | 166 | 9.7 | 20.9 | 0.00 | 0.00 | 0.00 | 38 | 1008.0 |
| 20260504202305 | 20 | 171 | 4.8 | 20.9 | 0.00 | 0.00 | 0.00 | 37 | 1008.0 |
| 20260504201803 | 20 | 156 | 4.8 | 20.9 | 0.00 | 0.00 | 0.00 | 36 | 1008.0 |
| 20260504201304 | 20 | 185 | 8.0 | 32.2 | 0.00 | 0.00 | 0.00 | 36 | 1008.0 |
| 20260504200803 | 20 | 157 | 8.0 | 33.8 | 0.00 | 0.00 | 0.00 | 38 | 1008.1 |
| 20260504200303 | 20 | 231 | 14.5 | 33.8 | 0.00 | 0.00 | 0.00 | 37 | 1008.1 |
| 20260504195304 | 20 | 179 | 4.8 | 24.1 | 0.00 | 0.00 | 0.00 | 37 | 1008.2 |
| 20260504194803 | 20 | 193 | 9.7 | 24.1 | 0.00 | 0.00 | 0.00 | 37 | 1008.4 |
| 20260504194304 | 20 | 127 | 3.2 | 32.2 | 0.00 | 0.00 | 0.00 | 38 | 1008.4 |
| 20260504193803 | 20 | 150 | 8.0 | 32.2 | 0.00 | 0.00 | 0.00 | 39 | 1008.6 |
| 20260504193303 | 20 | 180 | 9.7 | 32.2 | 0.00 | 0.00 | 0.00 | 38 | 1008.6 |
| 20260504192803 | 20 | 207 | 6.4 | 22.5 | 0.00 | 0.00 | 0.00 | 38 | 1008.7 |
| 20260504192304 | 20 | 209 | 8.0 | 22.5 | 0.00 | 0.00 | 0.00 | 39 | 1008.7 |
| 20260504191803 | 20 | 162 | 8.0 | 22.5 | 0.00 | 0.00 | 0.00 | 38 | 1008.7 |
| 20260504190804 | 20 | 229 | 11.3 | 25.7 | 0.00 | 0.00 | 0.00 | 39 | 1008.8 |
| 20260504190304 | 20 | 181 | 9.7 | 25.7 | 0.00 | 0.00 | 0.00 | 41 | 1008.8 |
| 20260504184804 | 18 | 210 | 11.3 | 27.4 | 0.00 | 0.00 | 0.00 | 40 | 1009.2 |
| 20260504183804 | 18 | 169 | 8.0 | 22.5 | 0.00 | 0.00 | 0.00 | 39 | 1009.2 |
| 20260504183304 | 19 | 171 | 9.7 | 19.3 | 0.00 | 0.00 | 0.00 | 39 | 1009.3 |
| 20260504182304 | 18 | 165 | 9.7 | 19.3 | 0.00 | 0.00 | 0.00 | 39 | 1009.3 |
| 20260504181804 | 18 | 166 | 3.2 | 19.3 | 0.00 | 0.00 | 0.00 | 41 | 1009.2 |
| 20260504180803 | 18 | 144 | 16.1 | 32.2 | 0.00 | 0.00 | 0.00 | 41 | 1009.4 |
| 20260504180304 | 18 | 167 | 6.4 | 25.7 | 0.00 | 0.00 | 0.00 | 40 | 1009.3 |
| 20260504175804 | 18 | 202 | 11.3 | 32.2 | 0.00 | 0.00 | 0.00 | 39 | 1009.4 |
| 20260504175304 | 18 | 225 | 14.5 | 32.2 | 0.00 | 0.00 | 0.00 | 38 | 1009.4 |
| 20260504174804 | 18 | 228 | 12.9 | 32.2 | 0.00 | 0.00 | 0.00 | 40 | 1009.4 |
| 20260504174303 | 18 | 261 | 9.7 | 22.5 | 0.00 | 0.00 | 0.00 | 38 | 1009.6 |
| 20260504173803 | 18 | 147 | 3.2 | 22.5 | 0.00 | 0.00 | 0.00 | 38 | 1009.6 |
| 20260504172802 | 18 | 237 | 14.5 | 22.5 | 0.00 | 0.00 | 0.00 | 40 | 1009.6 |
| 20260504172304 | 18 | 223 | 11.3 | 22.5 | 0.00 | 0.00 | 0.00 | 40 | 1009.7 |
| 20260504171802 | 18 | 215 | 8.0 | 24.1 | 0.00 | 0.00 | 0.00 | 41 | 1009.7 |
| 20260504171303 | 18 | 240 | 11.3 | 24.1 | 0.00 | 0.00 | 0.00 | 40 | 1009.7 |
| 20260504170802 | 18 | 168 | 6.4 | 24.1 | 0.00 | 0.00 | 0.00 | 43 | 1009.8 |
| 20260504170303 | 17 | 211 | 11.3 | 29.0 | 0.00 | 0.00 | 0.00 | 41 | 1010.1 |
| 20260504160303 | 17 | 202 | 16.1 | 25.7 | 0.00 | 0.00 | 0.00 | 43 | 1010.9 |
| 20260504141303 | 14 | 189 | 6.4 | 19.3 | 0.00 | 0.00 | 0.00 | 43 | 1011.8 |
| 20260504140802 | 14 | 195 | 8.0 | 24.1 | 0.00 | 0.00 | 0.00 | 42 | 1012.0 |
| 20260504140303 | 14 | 150 | 9.7 | 24.1 | 0.00 | 0.00 | 0.00 | 43 | 1012.0 |
| 20260504130803 | 11 | 228 | 1.6 | 8.0 | 0.00 | 0.00 | 0.00 | 53 | 1012.4 |
| 20260504130303 | 11 | 234 | 1.6 | 9.7 | 0.00 | 0.00 | 0.00 | 53 | 1012.4 |
| 20260504120303 | 5 | 314 | 0.0 | 0.0 | 0.00 | 0.00 | 0.00 | 79 | 1012.9 |
| 20260504110303 | 0 | 314 | 0.0 | 1.6 | 0.00 | 0.00 | 0.00 | 86 | 1013.0 |
| 20260504100303 | 0 | 314 | 0.0 | 1.6 | 0.00 | 0.00 | 0.00 | 85 | 1012.7 |
| 20260504081803 | 0 | 299 | 0.0 | 0.0 | 0.00 | 0.00 | 0.00 | 83 | 1012.9 |
| 20260504080803 | 0 | 299 | 0.0 | 3.2 | 0.00 | 0.00 | 0.00 | 83 | 1013.0 |
| 20260504080303 | 0 | 299 | 0.0 | 3.2 | 0.00 | 0.00 | 0.00 | 82 | 1012.9 |
| 20260504070303 | 1 | 302 | 0.0 | 0.0 | 0.00 | 0.00 | 0.00 | 81 | 1012.9 |
| 20260504045803 | 2 | 302 | 0.0 | 0.0 | 0.00 | 0.00 | 0.00 | 77 | 1012.7 |
| 20260504045304 | 2 | 302 | 0.0 | 0.0 | 0.00 | 0.00 | 0.00 | 76 | 1012.7 |
| 20260504044803 | 2 | 302 | 0.0 | 0.0 | 0.00 | 0.00 | 0.00 | 76 | 1012.7 |
| 20260504044303 | 2 | 302 | 0.0 | 3.2 | 0.00 | 0.00 | 0.00 | 75 | 1012.7 |
| 20260504043804 | 2 | 302 | 0.0 | 3.2 | 0.00 | 0.00 | 0.00 | 75 | 1012.7 |
| 20260504042803 | 2 | 302 | 0.0 | 0.0 | 0.00 | 0.00 | 0.00 | 74 | 1012.6 |
| 20260504042304 | 2 | 302 | 0.0 | 0.0 | 0.00 | 0.00 | 0.00 | 74 | 1012.5 |